Wind_Speed
55 51 51 50 51 45 48 50 55 46 46 40 43 39 44 44 49 51 69 69 61 61 45 43 39 35 43 43 44 45 49 51 52 61 60 60 57 58 58 58 58 56 53
60 61 58 59 56 52 49 51 53 58 59 52 46 50 48 45 53 71 57 58 62 44 48 46 43 44 41 46 47 44 45 49 51 61 62 63 62 62 59 58 58 56 54
65 66 66 64 56 53 53 55 57 62 60 57 53 53 59 56 53 46 52 54 59 51 59 61 58 56 56 63 55 55 51 52 48 55 65 64 59 63 64 59 59 58 58
73 73 74 69 64 58 54 55 56 59 57 61 63 62 67 70 60 52 50 61 58 51 61 69 65 62 60 59 67 55 57 52 53 50 56 63 60 57 61 65 63 59 59
81 83 80 72 66 62 59 59 59 59 61 61 63 65 64 71 75 69 66 58 67 64 65 69 71 66 64 61 61 57 54 54 52 49 45 45 50 56 61 64 68 66 62
85 84 77 73 72 71 71 70 67 67 66 68 68 68 64 70 83 87 85 80 68 65 70 75 69 68 64 62 65 63 57 56 54 48 50 53 57 58 64 68 68 68 67
84 78 76 77 78 79 78 77 76 75 72 72 73 74 74 76 78 83 91 83 66 69 77 75 70 70 71 71 62 58 56 59 57 57 62 57 57 61 66 71 70 69 66
80 76 78 81 82 85 83 79 79 77 75 73 73 74 75 78 81 83 84 85 88 87 89 89 84 78 71 66 55 51 51 53 55 54 57 57 61 59 59 61 63 67 67
78 80 79 80 78 78 79 75 69 63 62 64 67 64 64 68 74 76 76 75 79 88 94 88 72 78 70 63 51 48 49 49 46 53 59 58 56 49 43 47 54 54 58
82 81 80 77 76 75 68 57 49 38 35 36 36 42 50 58 65 67 67 64 65 68 67 64 68 63 61 48 42 38 37 39 41 44 47 47 41 38 36 37 39 42 42
83 80 78 77 72 62 53 43 35 30 31 35 41 43 43 43 47 49 52 52 51 47 49 48 45 40 35 32 33 33 38 39 37 37 40 37 35 34 33 33 34 25 34
79 78 76 73 62 49 40 33 27 26 30 34 36 33 29 29 31 34 35 37 36 34 29 26 24 24 24 28 30 31 32 35 32 32 32 33 36 33 31 28 32 34 37
78 77 75 66 56 37 29 27 25 27 31 29 24 19 18 19 19 18 16 15 17 17 17 20 22 25 27 28 32 34 31 32 33 32 31 30 35 30 28 28 31 32 37
77 75 70 61 48 34 21 18 24 31 25 24 18 14 13 8 5 3 6 9 12 13 15 14 15 19 26 30 30 29 29 32 30 26 24 25 27 25 25 24 32 30 38
74 72 64 55 41 32 20 17 23 20 16 15 11 11 8 8 7 8 8 11 15 18 19 22 22 23 27 26 27 30 31 28 24 23 19 23 25 26 28 28 31 40 41
71 70 60 49 39 31 23 15 15 17 9 8 11 12 11 10 8 11 13 15 17 17 19 21 23 22 20 21 27 26 21 27 27 25 23 26 25 26 27 24 29 34 37
68 66 56 48 38 31 23 20 15 6 4 3 15 13 12 10 8 10 10 9 12 13 9 10 14 17 22 25 24 25 21 25 25 24 26 27 28 30 35 30 29 27 27
66 64 54 45 37 31 19 17 12 6 10 1 9 15 15 9 9 10 11 10 2 2 3 8 9 13 22 27 30 27 25 25 24 26 26 27 27 29 36 40 36 36 38
65 63 54 43 35 31 23 18 14 10 16 14 19 13 16 20 14 11 10 8 6 8 6 6 7 7 13 19 20 20 21 20 29 30 27 27 24 24 31 37 37 38 37
63 62 53 41 37 30 25 21 17 13 21 19 22 16 10 22 24 18 14 13 15 15 12 11 8 8 13 20 25 36 27 23 29 36 35 34 32 31 34 38 38 38 36
64 62 56 42 35 32 26 24 22 19 28 30 27 23 27 21 24 24 22 19 17 20 22 16 14 10 13 20 21 24 24 23 27 33 37 36 35 35 35 38 40 42 37
64 64 57 47 39 35 31 25 22 21 28 34 35 37 33 37 38 31 31 31 28 26 25 26 24 18 10 14 24 26 27 29 30 32 33 35 35 34 34 35 37 38 39
67 67 57 48 41 38 36 32 29 26 26 32 38 38 40 38 39 42 33 41 38 33 28 29 28 24 20 18 17 17 20 26 31 33 35 34 35 39 38 40 38 39 42
72 64 56 51 44 39 40 39 40 35 33 33 36 41 45 43 39 43 43 45 40 38 36 34 34 31 29 26 23 23 21 20 26 27 27 31 35 38 40 44 43 42 42
70 60 55 50 45 42 41 42 43 45 45 42 40 40 42 46 48 48 47 47 48 45 42 41 38 38 40 36 34 32 28 29 26 27 31 33 34 34 38 45 47 44 41
61 56 52 48 44 42 43 45 46 47 49 51 51 49 48 48 48 51 54 55 53 52 49 48 47 45 45 45 44 43 42 40 37 35 35 36 35 35 37 40 43 44 43
Wind_Direction
324 324 319 315 309 295 289 282 278 270 276 287 282 258 265 270 270 280 277 281 289 280 281 291 298 299 298 280 281 283 275 260 252 258 254 249 248 252 251 250 252 254 254
321 320 319 316 310 301 289 280 273 266 276 273 276 265 264 261 265 262 273 268 270 274 278 278 285 285 299 306 295 284 292 280 265 257 256 253 248 247 251 249 250 252 254
320 319 318 315 310 303 297 290 283 273 276 269 262 261 259 260 268 267 259 261 263 273 278 276 278 274 281 293 296 287 283 290 275 264 258 255 253 251 248 248 246 250 249
321 319 318 317 313 307 298 291 287 282 277 273 265 260 255 252 262 257 267 261 256 265 276 274 270 277 284 288 293 292 276 285 274 266 262 259 254 252 251 247 246 246 248
320 320 318 315 311 307 301 296 289 284 279 274 269 263 263 258 255 251 254 257 254 256 272 280 277 276 277 285 287 290 285 270 269 262 255 257 259 256 253 250 247 246 247
318 316 314 312 310 306 302 298 292 287 281 276 273 269 260 259 254 255 254 254 253 257 263 272 277 272 272 281 287 288 275 264 256 252 253 256 265 263 264 256 247 244 244
316 315 312 310 307 304 300 297 293 287 281 276 273 270 268 267 264 258 257 261 261 256 266 270 271 281 286 288 292 282 264 258 254 257 258 263 266 272 268 256 248 243 242
316 314 312 309 307 304 303 301 295 289 283 277 273 271 269 268 268 265 266 264 264 266 268 268 277 281 286 288 284 274 259 256 255 256 261 266 274 272 264 248 241 242 242
314 313 311 310 310 308 307 304 299 293 286 279 274 273 271 270 269 270 270 270 271 269 269 274 285 279 289 283 276 261 256 256 259 262 265 268 272 265 253 244 241 244 244
316 316 316 315 315 314 314 312 307 298 300 291 289 283 276 272 271 270 271 273 274 274 277 277 280 285 280 265 259 250 250 253 259 260 263 268 259 246 241 242 245 244 243
319 319 319 319 319 316 312 309 316 310 306 298 297 289 285 278 274 270 270 271 272 275 278 279 274 262 253 246 243 243 249 254 267 265 262 265 246 241 239 237 237 226 247
321 321 322 322 319 314 313 314 315 317 310 310 303 290 288 283 278 275 271 268 270 271 269 255 249 242 242 237 240 244 251 262 256 262 264 256 238 236 234 232 227 220 225
323 324 324 323 323 315 316 321 323 320 316 308 305 299 298 295 289 280 270 256 250 242 253 252 244 242 240 243 239 254 262 255 250 267 265 246 230 232 233 230 218 213 199
324 326 327 326 323 317 308 314 321 322 318 313 310 323 323 319 309 251 228 245 248 251 252 245 248 249 247 248 250 253 246 244 254 259 253 225 218 221 217 211 189 218 212
326 327 328 327 326 320 316 310 316 322 320 326 325 306 288 284 286 253 261 260 257 265 263 258 255 258 248 246 255 242 241 242 248 247 240 222 211 218 213 210 204 211 216
328 330 328 327 325 319 314 314 317 314 318 335 319 327 320 287 274 258 263 271 271 271 267 260 256 242 227 225 230 224 234 234 231 237 229 213 214 217 203 211 207 214 214
329 331 328 325 321 312 308 308 313 281 249 295 348 311 310 301 272 273 272 287 303 289 268 265 254 236 232 240 232 232 238 229 235 223 216 214 215 211 201 203 222 217 220
329 331 329 324 323 317 304 300 290 247 184 211 297 269 265 274 281 287 281 298 274 71 306 265 267 246 223 224 220 236 233 235 218 201 205 212 213 214 209 207 211 214 218
329 332 330 322 321 321 299 294 282 248 201 232 273 271 297 265 274 271 262 210 230 243 269 300 266 265 226 215 209 231 228 224 201 201 209 214 222 222 216 214 222 223 224
325 329 328 317 310 316 312 294 282 248 200 217 254 242 230 271 262 257 260 256 247 258 269 283 288 275 239 229 208 210 228 228 214 211 213 223 231 234 227 217 217 225 226
323 325 324 315 302 302 304 296 282 264 224 231 238 236 227 250 258 256 251 257 267 261 258 259 274 277 256 229 223 225 225 225 225 220 222 225 227 227 226 223 223 227 229
318 320 318 311 297 287 288 286 281 269 246 238 239 242 243 245 253 253 258 259 262 264 260 259 260 260 249 246 231 232 234 234 230 230 231 232 230 226 221 220 217 221 229
316 317 312 306 292 281 277 272 270 265 260 251 245 244 245 250 253 254 254 258 258 258 256 256 255 249 244 241 234 230 235 236 238 237 237 237 235 231 226 217 225 231 232
315 313 308 305 295 283 272 269 263 263 260 252 249 250 248 247 249 248 251 250 258 257 257 254 252 251 249 241 239 240 233 232 232 233 234 232 233 232 230 224 224 230 232
312 309 306 302 293 283 278 271 266 261 259 260 256 252 249 248 249 247 249 251 252 252 252 252 251 247 247 243 242 245 245 243 241 241 236 233 230 233 233 230 229 231 237
310 308 305 299 292 285 280 276 272 267 262 258 255 253 253 252 251 248 246 249 249 250 248 244 246 249 248 247 242 241 240 240 242 238 238 234 232 230 230 231 231 231 232
Height
10885 10882 10875 10869 10861 10855 10847 10843 10837 10836 10832 10829 10826 10825 10824 10823 10816 10814 10812 10813 10811 10811 10810 10808 10806 10806 10806 10803 10802 10804 10807 10809 10814 10805 10814 10819 10827 10830 10833 10837 10840 10844 10849
10873 10865 10860 10853 10845 10839 10832 10824 10820 10817 10814 10812 10811 10808 10802 10802 10800 10799 10798 10795 10796 10795 10793 10791 10791 10793 10792 10791 10791 10791 10792 10795 10798 10795 10796 10800 10809 10814 10818 10821 10824 10829 10834
10858 10851 10844 10836 10828 10821 10815 10808 10803 10801 10797 10794 10795 10790 10785 10781 10783 10778 10778 10777 10780 10781 10776 10773 10771 10773 10771 10776 10779 10778 10777 10780 10782 10781 10779 10784 10790 10795 10802 10806 10810 10814 10819
10841 10832 10823 10814 10807 10803 10798 10790 10783 10777 10775 10771 10769 10767 10764 10764 10763 10759 10759 10761 10762 10761 10759 10753 10754 10756 10754 10758 10762 10764 10762 10761 10763 10764 10764 10766 10771 10776 10782 10790 10794 10797 10801
10816 10808 10801 10796 10788 10781 10777 10770 10763 10757 10751 10748 10744 10743 10741 10740 10738 10738 10738 10741 10743 10744 10738 10732 10731 10739 10739 10739 10743 10744 10745 10744 10747 10747 10748 10750 10752 10757 10764 10768 10776 10782 10787
10803 10791 10781 10772 10765 10758 10752 10746 10742 10735 10729 10723 10720 10720 10720 10716 10713 10712 10715 10718 10722 10725 10718 10711 10709 10718 10722 10724 10726 10727 10728 10728 10730 10733 10735 10736 10737 10739 10742 10749 10756 10763 10771
10787 10775 10762 10751 10743 10735 10726 10717 10710 10704 10702 10699 10695 10691 10689 10687 10686 10688 10688 10694 10699 10699 10692 10688 10693 10697 10701 10702 10705 10707 10708 10710 10711 10716 10718 10719 10719 10721 10720 10723 10733 10743 10750
10771 10759 10747 10734 10719 10704 10694 10686 10676 10670 10666 10664 10663 10662 10663 10661 10658 10658 10661 10670 10673 10671 10666 10672 10675 10676 10680 10680 10683 10686 10690 10692 10693 10697 10699 10702 10701 10699 10697 10702 10713 10724 10732
10754 10742 10730 10715 10700 10684 10669 10654 10642 10636 10631 10630 10631 10633 10635 10635 10632 10634 10637 10642 10643 10641 10644 10650 10653 10658 10660 10661 10663 10668 10671 10674 10677 10679 10682 10683 10682 10681 10683 10690 10699 10708 10715
10732 10719 10705 10692 10678 10662 10647 10635 10624 10617 10613 10610 10608 10609 10609 10609 10607 10610 10614 10620 10620 10622 10628 10630 10633 10638 10641 10642 10648 10653 10657 10662 10665 10664 10667 10667 10666 10669 10674 10680 10687 10694 10702
10710 10697 10684 10670 10657 10643 10633 10624 10617 10610 10604 10600 10597 10593 10592 10592 10589 10591 10596 10601 10603 10608 10609 10611 10615 10620 10624 10629 10635 10641 10646 10649 10651 10651 10653 10652 10655 10660 10666 10671 10678 10686 10692
10692 10678 10665 10651 10639 10630 10622 10613 10607 10602 10595 10591 10586 10582 10581 10580 10580 10581 10583 10587 10591 10594 10598 10602 10606 10610 10615 10620 10626 10631 10635 10637 10638 10640 10641 10642 10645 10651 10657 10663 10669 10676 10683
10673 10661 10649 10636 10626 10619 10613 10606 10598 10593 10589 10585 10581 10577 10576 10575 10575 10575 10577 10580 10585 10589 10592 10596 10599 10603 10607 10613 10617 10620 10624 10625 10628 10630 10631 10631 10636 10643 10649 10654 10660 10667 10676
10660 10646 10634 10623 10614 10610 10606 10601 10595 10589 10584 10580 10577 10575 10573 10572 10573 10575 10577 10579 10582 10585 10587 10589 10593 10596 10601 10604 10607 10610 10613 10615 10618 10621 10622 10623 10629 10636 10642 10647 10653 10661 10666
10646 10635 10623 10612 10605 10599 10598 10594 10589 10586 10583 10581 10577 10576 10574 10573 10574 10575 10576 10577 10580 10581 10583 10585 10587 10590 10592 10595 10595 10600 10603 10606 10609 10613 10615 10618 10625 10632 10636 10641 10647 10653 10660
10634 10622 10612 10603 10596 10592 10589 10587 10585 10580 10581 10580 10578 10575 10574 10573 10573 10573 10574 10574 10575 10575 10576 10576 10577 10579 10582 10585 10589 10591 10594 10597 10601 10606 10609 10614 10620 10625 10631 10635 10640 10647 10653
10626 10614 10603 10595 10588 10584 10581 10579 10577 10578 10577 10576 10576 10575 10572 10571 10572 10571 10571 10571 10571 10570 10570 10570 10569 10570 10573 10575 10579 10583 10587 10591 10594 10597 10601 10607 10613 10618 10624 10631 10636 10641 10646
10617 10606 10596 10588 10581 10576 10574 10573 10572 10572 10572 10571 10571 10569 10569 10569 10569 10568 10568 10569 10568 10567 10566 10565 10565 10565 10567 10569 10573 10578 10581 10584 10586 10590 10596 10601 10606 10611 10616 10622 10629 10635 10640
10607 10596 10587 10581 10575 10570 10567 10566 10565 10566 10566 10566 10566 10565 10565 10566 10565 10565 10565 10566 10565 10565 10564 10563 10562 10562 10563 10567 10572 10576 10577 10579 10581 10585 10589 10596 10599 10603 10609 10615 10621 10626 10630
10596 10588 10580 10573 10569 10564 10560 10559 10559 10559 10559 10559 10558 10560 10562 10559 10558 10559 10560 10560 10561 10561 10562 10561 10560 10559 10560 10562 10568 10568 10572 10573 10575 10580 10583 10588 10592 10596 10600 10605 10611 10616 10621
10584 10576 10569 10564 10560 10557 10553 10550 10550 10550 10550 10550 10552 10552 10551 10550 10550 10551 10552 10553 10554 10555 10555 10556 10557 10556 10555 10556 10560 10562 10564 10565 10569 10573 10577 10579 10583 10587 10591 10595 10601 10607 10611
10572 10564 10557 10552 10548 10547 10546 10543 10540 10539 10539 10540 10540 10542 10542 10542 10543 10545 10544 10544 10546 10547 10548 10549 10550 10551 10551 10551 10552 10554 10557 10559 10561 10564 10567 10571 10574 10578 10582 10587 10592 10597 10601
10557 10549 10543 10538 10534 10532 10531 10531 10529 10528 10527 10527 10527 10528 10530 10531 10532 10533 10532 10532 10535 10538 10539 10540 10542 10543 10544 10546 10547 10547 10548 10550 10552 10555 10558 10561 10565 10569 10573 10577 10581 10586 10589
10540 10532 10525 10521 10518 10516 10514 10514 10514 10514 10513 10513 10513 10513 10514 10515 10517 10519 10519 10520 10523 10526 10528 10530 10532 10533 10534 10536 10538 10539 10541 10542 10544 10547 10548 10550 10554 10559 10563 10566 10570 10574 10578
10519 10513 10509 10504 10500 10498 10497 10496 10495 10495 10497 10497 10498 10498 10498 10498 10500 10502 10503 10506 10507 10510 10513 10516 10518 10521 10522 10524 10527 10529 10531 10533 10535 10537 10539 10541 10543 10546 10550 10554 10559 10563 10567
10501 10496 10491 10486 10483 10481 10479 10477 10475 10475 10475 10476 10477 10478 10479 10480 10480 10483 10485 10487 10490 10492 10496 10500 10503 10505 10507 10510 10513 10516 10518 10520 10524 10526 10528 10530 10532 10535 10538 10542 10547 10550 10554